sat.trackr.live / text

‹ back to catalog

TOMORROW-S2

NORAD 60485 · 2024-149T

PAYLOAD ACTIVE UNKNOWN

§ Identity

Operator
Country
US
Launch date
2024-08-16
Launch site
AFWTR
Launch vehicle
Mass (kg)
RCS (m²)

External: N2YO · Heavens-Above · Gunter

§ Orbital elements

Epoch: 2026-05-25T02:51:01.912032Z

Period
93.97 min
Inclination
97.3817°
Eccentricity
0.0002897
Mean motion
15.32360973 rev/d
Perigee alt
466.8 km
Apogee alt
470.8 km
Semi-major
6,846.9 km
B*
2.2798e-4
RAAN
226.1372°
Arg perigee
30.3260°
Mean anomaly
329.8148°
Rev number
9,855

§ Raw data

TOMORROW-S21 60485U 24149T   26145.11877213  .00007046  00000+0  22798-3 0  99982 60485  97.3817 226.1372 0002897  30.3260 329.8148 15.32360973 98554

JSON: /api/v1/satellites/60485 · /tle

For live sub-satellite position, see the globe view (requires WebGL).

§ Visibility from observer

Set your observer location to see the next 7 days of passes ≥ 10°. The values pass through the URL so the page stays shareable.

No JS? Fill the form by hand. The geolocation button needs JavaScript.

§ Radio — SatNOGS DB

ModeDescriptionDownlinkUplink
OQPSK Mode X - OQPSK 8.030 GHz

1 transmitter · refreshed weekly from db.satnogs.org